BEIDOU 7 (C07)

Last updated on Mon Feb 13 2023 00:03:21 GMT+0000 (Coordinated Universal Time)

1 37256U 10068A 23043.60206328 -.00000171 00000+0 00000+0 0 9995 2 37256 49.7791 286.7660 0023223 206.0023 333.4906 1.00292121 44556

Satellite not in orbit

BEIDOU 7 (C07)